Wind_Speed
22 21 19 17 16 15 14 14 13 12 12 11 10 9 9 8 7 7 7 7 6 6 5 5 5 5 5 5 5 5 5 6 6 7 7 8 8 9 9 10 11 11 11
25 24 23 21 19 18 17 16 15 15 14 13 12 12 11 10 10 9 9 9 8 8 7 7 7 7 6 6 6 6 6 7 7 7 8 8 9 10 11 11 12 13 13
28 26 24 23 22 20 19 19 18 17 16 15 15 14 14 13 12 11 11 10 10 10 9 9 9 8 8 8 8 8 8 8 8 9 9 9 10 11 11 12 13 14 15
31 30 27 25 24 23 22 21 20 19 18 17 17 16 16 15 15 14 13 13 13 12 12 11 11 11 10 10 10 9 9 9 9 10 10 11 11 12 12 13 14 15 16
34 33 31 29 26 25 24 23 22 21 20 19 18 18 18 18 17 17 16 16 15 15 14 14 13 13 13 13 12 12 12 11 11 11 11 12 12 13 13 14 15 16 16
36 35 33 29 28 27 26 25 24 23 22 21 21 20 20 20 20 20 19 18 18 17 17 16 16 16 16 15 15 14 14 14 13 13 13 14 14 15 15 16 16 17 18
36 37 36 34 32 30 27 26 25 25 24 23 22 21 22 22 23 22 22 21 20 20 20 19 18 18 18 18 17 17 16 16 16 16 16 16 16 16 17 17 18 19 20
38 37 35 34 33 31 29 28 27 27 26 24 23 23 23 24 24 24 24 23 23 23 22 22 21 21 20 20 20 19 18 18 18 18 17 18 18 18 19 19 20 20 21
39 37 36 34 32 31 30 29 28 27 27 26 25 24 23 24 25 25 24 25 25 25 25 24 24 24 24 23 22 21 21 20 20 20 20 20 20 20 21 21 21 22 23
41 39 37 36 33 31 30 30 29 29 28 27 26 26 26 26 26 26 26 26 26 26 26 26 26 26 26 25 25 24 23 23 22 22 22 22 22 22 23 23 23 23 24
39 38 36 35 35 33 32 30 28 28 27 27 28 28 28 28 28 28 28 28 27 27 28 28 28 28 28 28 27 26 25 25 25 24 24 24 24 24 24 24 24 24 25
38 38 37 35 34 33 31 30 27 27 27 27 28 29 30 30 31 31 30 30 30 30 29 30 30 29 29 30 30 29 28 28 27 27 26 26 26 25 25 25 25 26 26
35 35 35 35 34 32 31 29 28 27 27 28 28 30 31 31 32 32 32 32 32 32 31 32 32 31 31 31 31 31 31 30 30 29 28 28 28 27 27 27 27 27 27
33 33 33 32 33 33 32 31 30 30 30 30 30 30 30 31 32 33 33 34 33 33 34 34 34 33 33 32 32 33 33 33 32 31 31 30 29 28 28 28 28 28 28
29 30 30 30 30 30 31 31 31 30 31 31 31 31 32 32 32 33 33 34 34 34 35 35 35 34 34 34 33 34 34 33 32 32 32 31 30 29 29 28 28 28 28
23 25 26 26 26 26 28 29 29 28 29 30 30 30 31 31 31 31 34 34 34 35 35 36 37 36 36 36 35 34 34 34 34 33 31 31 30 29 28 28 28 28 29
18 20 21 22 23 25 25 25 26 27 27 28 28 29 30 30 31 31 32 32 33 33 34 35 35 36 34 34 35 35 34 35 35 34 32 30 29 28 27 27 27 28 29
14 16 17 18 20 21 22 23 25 26 27 28 28 29 30 30 31 31 31 32 32 32 32 32 32 32 32 32 32 32 33 33 33 32 30 28 28 27 27 27 27 28 28
9 11 13 15 17 18 19 21 23 25 26 27 27 27 28 28 29 30 30 30 30 29 29 29 29 30 30 31 31 31 31 30 30 28 26 26 26 25 26 27 27 28 28
5 7 9 11 13 14 16 17 19 21 22 23 24 24 24 23 24 25 25 26 27 27 28 28 28 27 27 27 27 26 25 24 24 23 22 23 23 24 25 26 27 28 29
3 4 6 8 10 11 13 15 16 17 17 18 19 20 20 21 22 22 22 22 23 24 24 24 25 24 24 23 21 21 20 20 19 19 19 21 22 23 25 26 26 27 28
4 3 4 6 8 9 10 11 13 13 15 16 17 17 17 17 19 19 19 18 17 17 16 17 18 18 18 17 16 16 16 15 16 17 19 20 21 22 23 23 24 25 26
7 5 5 6 7 8 9 10 10 11 12 13 14 15 14 14 14 15 15 15 15 14 13 13 13 13 13 13 13 13 13 14 15 16 17 18 19 20 21 22 23 24 25
9 7 6 6 6 6 7 8 9 11 11 12 12 12 12 12 12 12 13 12 12 13 12 12 13 12 12 11 11 12 13 13 14 15 17 18 19 19 20 20 21 22 23
11 9 8 8 7 6 5 4 5 6 8 8 9 9 9 10 10 10 11 11 11 11 11 10 10 10 9 9 10 11 12 13 14 15 16 16 16 17 17 18 19 19 20
13 11 10 9 8 7 6 4 2 4 5 6 7 8 8 8 9 10 10 10 9 9 9 9 9 9 9 9 9 10 10 11 12 12 13 13 14 14 15 15 16 16 17
Wind_Direction
253 253 253 253 253 252 251 251 251 250 247 242 239 237 238 239 243 245 246 245 242 240 237 232 231 232 234 237 240 240 241 244 242 240 241 243 244 245 248 247 247 245 247
252 253 252 251 252 252 250 249 249 249 248 244 239 238 237 238 241 243 244 245 243 240 239 236 233 233 235 236 241 244 245 248 247 245 244 246 248 250 252 251 252 252 251
250 250 253 253 251 249 249 248 247 247 247 246 241 239 239 239 239 241 242 243 243 240 237 237 235 235 236 237 240 245 246 250 252 251 252 253 255 255 255 255 256 257 256
251 248 249 249 250 248 247 246 246 246 246 246 244 241 238 239 240 241 242 241 242 241 239 239 238 237 238 240 241 243 245 248 252 253 253 254 256 258 258 258 259 260 260
253 249 248 247 247 248 247 245 244 245 246 246 245 242 240 240 242 243 243 243 243 242 241 241 242 240 240 240 241 242 244 247 250 252 254 255 256 257 259 260 261 262 263
255 251 249 249 248 248 247 247 247 245 245 245 245 244 243 243 243 243 244 245 244 243 243 244 244 242 241 241 243 245 246 248 250 252 253 254 256 257 259 262 262 263 265
257 255 250 249 249 248 248 248 248 246 245 244 244 245 245 245 246 244 244 245 245 244 244 244 245 244 243 243 245 247 248 249 251 253 255 256 257 258 260 262 264 265 266
256 256 253 251 250 249 248 248 247 246 243 244 244 244 245 247 248 246 246 246 247 247 246 246 247 247 246 245 247 248 249 250 251 253 255 257 258 259 261 262 264 265 266
255 255 252 251 251 249 247 246 245 243 242 242 242 243 245 247 247 248 248 248 248 249 248 249 248 247 247 247 248 250 251 251 252 253 256 257 258 260 262 264 265 265 266
253 254 255 253 252 250 250 248 247 245 243 243 243 244 247 247 247 249 250 251 250 250 251 251 251 250 249 249 249 251 252 253 254 256 257 258 260 262 263 266 267 267 267
253 252 253 254 254 256 254 251 248 245 245 246 247 248 250 249 248 250 251 251 252 252 253 253 253 253 251 250 250 252 253 254 256 257 258 259 261 263 265 267 267 267 267
250 250 251 252 254 254 255 252 249 247 248 248 249 250 251 250 248 249 249 251 253 254 254 254 253 253 253 252 252 253 254 256 257 259 258 259 260 262 265 267 267 268 268
247 248 249 251 253 253 254 255 253 253 254 253 252 251 249 249 249 248 248 249 251 253 253 254 254 255 255 255 254 255 256 257 257 258 258 258 259 261 264 266 267 268 268
243 244 246 248 250 251 253 253 252 253 255 253 252 251 250 249 251 249 249 249 250 251 253 254 256 256 256 257 256 256 256 256 256 257 258 259 260 261 264 266 268 268 269
239 240 241 242 246 248 249 249 250 251 252 250 249 250 251 250 249 249 250 250 250 251 252 254 255 256 257 258 257 257 256 256 257 258 259 259 260 261 263 266 268 269 270
235 238 240 240 243 245 245 247 247 249 250 249 250 251 251 251 250 251 251 251 252 253 254 255 256 258 261 259 258 258 257 256 256 256 256 258 260 262 264 265 268 269 270
230 235 238 241 242 244 243 244 245 245 246 248 250 251 252 253 251 252 252 253 253 253 255 257 257 257 259 259 257 256 257 257 257 255 256 258 259 263 265 267 268 270 271
232 233 236 240 243 241 242 244 246 248 249 251 251 252 253 253 252 252 252 253 255 255 256 257 256 254 254 255 255 255 256 255 255 255 255 256 260 262 265 267 270 272 274
233 236 240 242 243 244 245 247 249 249 251 252 252 252 252 253 252 251 252 253 254 254 253 254 254 252 252 253 256 256 257 255 254 254 255 258 261 265 268 270 272 274 276
243 246 248 250 251 251 250 249 250 250 251 250 250 250 249 249 249 248 250 251 251 251 251 251 250 250 251 252 252 254 254 254 254 253 256 260 263 268 271 273 275 276 278
303 264 259 259 256 258 256 255 254 248 245 244 246 246 247 246 244 244 246 246 246 246 246 246 245 246 248 247 246 246 249 251 252 255 260 264 267 270 274 276 278 279 280
346 310 287 283 272 266 263 260 254 248 243 243 245 243 242 243 241 239 240 239 238 238 238 239 240 241 243 245 246 246 248 252 257 261 266 269 272 275 277 279 281 282 282
2 342 320 306 293 281 273 266 260 254 246 241 240 240 237 235 234 232 230 228 226 227 230 233 235 236 237 241 244 247 253 257 260 265 269 273 276 280 281 283 284 285 285
12 3 353 336 315 300 287 274 259 249 243 233 228 226 225 228 228 228 226 223 223 222 224 229 233 237 239 241 243 248 253 259 266 270 272 276 279 283 286 287 288 288 288
20 16 9 358 348 336 322 299 259 237 230 222 215 214 216 221 220 218 217 216 220 222 223 226 230 234 237 241 246 252 258 264 269 274 277 281 284 287 290 293 294 295 294
24 21 18 13 10 4 353 338 290 224 216 217 209 207 207 204 202 204 206 207 211 214 214 220 225 229 234 240 247 253 261 268 274 279 282 285 288 291 294 296 298 300 302
Height
5903 5903 5903 5904 5904 5904 5904 5904 5905 5905 5905 5905 5906 5906 5906 5907 5907 5907 5907 5907 5907 5907 5907 5907 5907 5907 5907 5908 5908 5908 5908 5909 5909 5909 5910 5910 5911 5912 5912 5913 5914 5915 5915
5897 5898 5898 5899 5900 5900 5900 5901 5901 5901 5902 5903 5903 5904 5904 5904 5905 5905 5905 5905 5905 5905 5906 5906 5906 5906 5906 5907 5907 5907 5907 5907 5908 5908 5908 5909 5909 5910 5910 5911 5912 5912 5913
5891 5892 5893 5894 5894 5895 5896 5896 5897 5898 5898 5899 5900 5900 5901 5902 5902 5902 5903 5903 5903 5903 5904 5904 5904 5905 5905 5905 5905 5906 5906 5906 5906 5906 5907 5907 5907 5908 5908 5909 5909 5910 5910
5884 5885 5886 5887 5888 5890 5891 5892 5893 5893 5894 5895 5896 5897 5897 5898 5899 5900 5900 5901 5901 5901 5902 5902 5902 5903 5903 5903 5904 5904 5904 5904 5904 5904 5905 5905 5905 5905 5906 5906 5906 5907 5907
5877 5878 5879 5881 5882 5884 5885 5886 5888 5889 5890 5890 5891 5892 5893 5894 5895 5896 5897 5897 5898 5898 5899 5899 5900 5900 5900 5901 5901 5901 5902 5902 5902 5902 5902 5902 5902 5903 5903 5903 5903 5903 5904
5869 5870 5872 5873 5875 5877 5878 5880 5882 5883 5884 5885 5886 5888 5889 5890 5891 5892 5893 5894 5894 5895 5895 5896 5896 5897 5897 5898 5898 5898 5899 5899 5899 5899 5899 5899 5899 5899 5899 5899 5900 5900 5900
5862 5862 5864 5866 5868 5869 5871 5873 5875 5877 5878 5879 5881 5882 5883 5885 5886 5887 5888 5889 5890 5891 5891 5892 5893 5893 5894 5894 5895 5895 5895 5895 5896 5896 5896 5896 5896 5896 5896 5896 5896 5896 5896
5854 5856 5857 5859 5860 5862 5863 5865 5868 5870 5871 5873 5875 5876 5878 5880 5880 5882 5883 5884 5885 5886 5887 5888 5888 5889 5890 5890 5891 5891 5891 5892 5892 5892 5892 5892 5892 5892 5892 5891 5891 5891 5891
5845 5848 5849 5851 5853 5855 5856 5858 5860 5862 5865 5867 5868 5871 5872 5873 5875 5876 5877 5879 5880 5881 5882 5883 5883 5884 5885 5886 5886 5887 5887 5888 5888 5888 5888 5888 5887 5887 5887 5887 5886 5886 5886
5836 5839 5841 5843 5846 5847 5849 5851 5853 5855 5857 5860 5862 5864 5866 5867 5869 5870 5872 5873 5874 5875 5876 5877 5878 5878 5879 5880 5881 5882 5882 5883 5883 5883 5882 5882 5882 5882 5882 5881 5881 5880 5880
5827 5830 5833 5835 5837 5839 5841 5843 5845 5847 5850 5853 5855 5857 5859 5860 5862 5864 5865 5866 5867 5868 5870 5871 5871 5872 5873 5874 5875 5876 5877 5877 5877 5877 5877 5877 5877 5876 5876 5876 5875 5875 5874
5818 5821 5824 5827 5829 5832 5833 5835 5837 5840 5842 5845 5847 5849 5851 5853 5855 5856 5858 5859 5860 5861 5862 5863 5864 5865 5866 5868 5869 5870 5870 5870 5871 5871 5871 5871 5871 5870 5870 5870 5869 5868 5868
5809 5812 5816 5819 5822 5824 5826 5827 5830 5833 5835 5837 5839 5841 5843 5845 5846 5848 5850 5851 5852 5853 5854 5856 5857 5858 5859 5860 5861 5862 5863 5863 5864 5864 5864 5864 5864 5864 5864 5863 5863 5862 5861
5800 5804 5807 5811 5813 5816 5818 5821 5823 5825 5827 5830 5831 5833 5835 5837 5838 5840 5842 5843 5844 5845 5847 5848 5849 5849 5851 5852 5854 5854 5855 5856 5856 5857 5857 5857 5857 5857 5857 5856 5856 5855 5854
5793 5797 5800 5803 5805 5808 5810 5813 5815 5817 5819 5821 5823 5825 5826 5828 5829 5831 5833 5834 5836 5837 5838 5839 5841 5841 5842 5844 5845 5846 5847 5848 5848 5849 5849 5850 5850 5849 5849 5849 5848 5848 5847
5787 5791 5793 5796 5799 5801 5803 5805 5807 5809 5811 5813 5815 5817 5818 5820 5821 5823 5824 5825 5827 5828 5829 5831 5832 5833 5834 5835 5836 5837 5838 5839 5840 5841 5841 5842 5842 5842 5842 5841 5841 5840 5840
5783 5786 5788 5790 5792 5794 5796 5798 5800 5802 5804 5806 5807 5809 5810 5811 5813 5814 5815 5817 5818 5819 5821 5822 5823 5824 5825 5826 5827 5829 5830 5831 5832 5832 5833 5833 5834 5834 5834 5834 5834 5833 5832
5780 5782 5784 5786 5787 5789 5790 5792 5793 5795 5797 5798 5800 5801 5802 5804 5805 5806 5807 5809 5810 5811 5813 5813 5815 5816 5817 5818 5819 5821 5821 5822 5823 5824 5825 5826 5826 5827 5827 5826 5826 5826 5825
5778 5779 5780 5781 5782 5783 5784 5785 5787 5788 5789 5791 5792 5793 5795 5796 5797 5798 5799 5801 5802 5803 5805 5806 5807 5808 5809 5810 5812 5813 5814 5815 5816 5817 5818 5819 5819 5819 5819 5819 5819 5818 5817
5777 5777 5777 5777 5778 5778 5779 5780 5781 5782 5783 5784 5785 5786 5787 5788 5790 5791 5792 5793 5795 5797 5798 5799 5800 5801 5802 5804 5805 5806 5807 5808 5809 5810 5811 5812 5813 5813 5813 5813 5812 5811 5810
5775 5774 5775 5774 5774 5774 5775 5775 5775 5776 5776 5777 5778 5779 5781 5782 5783 5785 5786 5787 5789 5790 5791 5793 5794 5796 5797 5798 5799 5800 5802 5803 5804 5805 5806 5807 5807 5807 5806 5806 5805 5804 5803
5774 5773 5772 5772 5771 5771 5770 5770 5770 5770 5771 5772 5773 5774 5775 5777 5778 5779 5781 5782 5784 5785 5786 5788 5789 5790 5792 5793 5795 5796 5797 5798 5799 5801 5801 5801 5801 5801 5800 5799 5798 5797 5795
5773 5772 5770 5769 5768 5767 5767 5766 5766 5766 5766 5767 5768 5770 5771 5772 5773 5775 5776 5778 5779 5781 5783 5784 5785 5786 5788 5789 5791 5792 5793 5794 5795 5796 5796 5796 5796 5795 5794 5793 5791 5790 5788
5773 5771 5769 5767 5766 5764 5763 5762 5762 5762 5762 5763 5764 5766 5767 5768 5770 5772 5773 5775 5776 5778 5779 5781 5782 5784 5785 5786 5788 5789 5790 5791 5791 5791 5792 5791 5790 5789 5788 5787 5785 5783 5781
5773 5771 5769 5766 5764 5762 5760 5759 5759 5758 5759 5760 5761 5762 5764 5766 5768 5769 5771 5773 5774 5775 5777 5779 5780 5781 5783 5784 5785 5786 5787 5787 5787 5787 5787 5786 5785 5784 5783 5781 5779 5777 5775
5774 5771 5769 5766 5764 5761 5759 5757 5757 5757 5757 5758 5759 5760 5762 5764 5766 5767 5769 5771 5772 5773 5775 5777 5778 5779 5781 5782 5783 5784 5784 5784 5784 5783 5782 5781 5780 5779 5778 5776 5774 5772 5769